Location: Córrego Montividiu
(13.2496°S, 48.8603°W)
Time: 10:56:05
(UTC+00:00)

Meteor 2-10 - Pass Details

Date: 11 March 2026
Orbit: 736 x 866 km, 81.2° (Epoch: 22 April)

Event Time Altitude Azimuth Distance (km) Brightness Sun altitude
Rises 21:51:22 0° 182° (S) 3,456 7.5 -5.5°
Reaches altitude 10° 21:53:51 10° 179° (S) 2,509 6.7 -6.1°
Maximum altitude 21:59:32 69° 96° (E) 907 4.2 -7.5°
Drops below altitude 10° 22:05:02 10° 13° (NNE) 2,430 6.4 -8.8°
Sets 22:07:24 0° 10° (N) 3,340 7.1 -9.4°
